Tracking 18980 objects as of 19-Feb-2018
HD Live streaming from Space Station
objects crossing your sky now

COSMOS 2209

Track COSMOS 2209 now!
COSMOS 2209 is classified as:


NORAD ID: 22112
Int'l Code: 1992-059A
Perigee: 35,760.9 km
Apogee: 35,866.6 km
Inclination: 15.1 °
Period: 1,437.1 minutes
Semi major axis: 42184 km
RCS: 5.0119 m2 (large)
Launch date: September 10, 1992
Source: Commonwealth of Independent States (former USSR) (CIS)
Launch site: TYURATAM MISSILE AND SPACE COMPLEX (TTMTR)
aabbcc
Your satellite tracking list
Your tracking list is empty




NASA's NSSDC Master Catalog

Two Line Element Set (TLE):
1 22112U 92059A   18049.24020199 -.00000301  00000-0  00000+0 0  9996
2 22112  15.0611   8.6244 0012532 254.6869 277.5544  1.00200567 93154
Source of the keplerian elements: AFSPC